Plant City, FL

1:33 PM EDT on June 22, 2017 (GMT -0400)
Plant City Municipal

Weather History for KPCM - November, 2013

Change the Weather History Date:

Wednesday, November 13, 2013

  Actual Average Record
Temperature  
Mean Temperature 62 °F -  
Max Temperature 69 °F 79 °F 89 °F (1972)
Min Temperature 53 °F 54 °F 32 °F (1934)
Degree Days  
Heating Degree Days 3    
Growing Degree Days 12 (Base 50)    
Moisture  
Dew Point 48 °F    
Average Humidity 60    
Maximum Humidity 77    
Minimum Humidity 46    
Precipitation  
Precipitation 0.00 in - - ()
Sea Level Pressure  
Sea Level Pressure 30.24 in    
Wind  
Wind Speed 10 mph (NNE)    
Max Wind Speed 18 mph    
Max Gust Speed 29 mph    
Visibility 10 miles    
Events      
Averages and records for this station are not official NWS values.
T = Trace of Precipitation, MM = Missing Value Source: NWS Daily Summary

Daily Weather History Graph

Daily Weather History Graph

Search for Another Location

Airport or City:

Trip Planner

Search our weather history database for the weather conditions in past years. The results will help you decide how hot, cold, wet, or windy it might be!

Date:

Astronomy

Nov. 13, 2013 Rise Set
Actual Time 6:48 AM EST 5:36 PM EST
Civil Twilight 6:24 AM EST 6:01 PM EST
Nautical Twilight 5:55 AM EST 6:29 PM EST
Astronomical Twilight 5:27 AM EST 6:57 PM EST
Moon 3:06 PM EST (11/13) 2:59 AM EST (11/13)
Length of Visible Light 11h 37m
Length of Day
10h 47m
Waxing Gibbous, 84% of the Moon is Illuminated
Nov 13
Waxing Gibbous
Nov 17
Full
Nov 25
Last Quarter
Dec 2
New
Dec 9
First Quarter

Hourly Weather History & Observations

Time (EST) Temp. Dew Point Humidity Pressure Visibility Wind Dir Wind Speed Gust Speed Precip Events Conditions
12:15 AM 69.8 °F 55.4 °F 60% 30.13 in 10.0 mi North 4.6 mph - N/A   Scattered Clouds
12:35 AM 68.0 °F 55.4 °F 64% 30.12 in 10.0 mi North 4.6 mph - N/A   Scattered Clouds
12:55 AM 68.0 °F 55.4 °F 64% 30.13 in 10.0 mi North 3.5 mph - N/A   Mostly Cloudy
1:15 AM 68.0 °F 55.4 °F 64% 30.12 in 10.0 mi North 4.6 mph - N/A   Scattered Clouds
1:35 AM 68.0 °F 55.4 °F 64% 30.12 in 10.0 mi North 5.8 mph - N/A   Clear
1:55 AM 68.0 °F 53.6 °F 60% 30.12 in 10.0 mi North 4.6 mph - N/A   Clear
2:15 AM 66.2 °F 51.8 °F 60% 30.12 in 10.0 mi North 8.1 mph - N/A   Scattered Clouds
2:35 AM 66.2 °F 51.8 °F 60% 30.11 in 10.0 mi North 8.1 mph - N/A   Clear
2:55 AM 66.2 °F 50.0 °F 56% 30.12 in 10.0 mi North 10.4 mph - N/A   Clear
3:15 AM 66.2 °F 50.0 °F 56% 30.12 in 10.0 mi NNE 12.7 mph 17.3 mph N/A   Clear
3:35 AM 64.4 °F 50.0 °F 59% 30.13 in 10.0 mi North 10.4 mph 17.3 mph N/A   Clear
3:55 AM 64.4 °F 48.2 °F 56% 30.14 in 10.0 mi NNE 10.4 mph 23.0 mph N/A   Clear
4:15 AM 62.6 °F 48.2 °F 59% 30.14 in 10.0 mi NNE 9.2 mph 18.4 mph N/A   Clear
4:35 AM 62.6 °F 48.2 °F 59% 30.15 in 10.0 mi NNE 9.2 mph 18.4 mph N/A   Clear
4:55 AM 60.8 °F 48.2 °F 63% 30.16 in 10.0 mi North 11.5 mph 17.3 mph N/A   Clear
5:15 AM 60.8 °F 46.4 °F 59% 30.17 in 10.0 mi NNE 15.0 mph 18.4 mph N/A   Clear
5:35 AM 60.8 °F 46.4 °F 59% 30.19 in 10.0 mi North 10.4 mph 18.4 mph N/A   Clear
5:55 AM 59.0 °F 46.4 °F 63% 30.19 in 10.0 mi NNE 13.8 mph 17.3 mph N/A   Clear
6:15 AM 59.0 °F 48.2 °F 67% 30.20 in 10.0 mi NNE 9.2 mph 16.1 mph N/A   Mostly Cloudy
6:35 AM 59.0 °F 48.2 °F 67% 30.21 in 10.0 mi NNE 10.4 mph 23.0 mph N/A   Scattered Clouds
6:55 AM 59.0 °F 48.2 °F 67% 30.22 in 10.0 mi NNE 15.0 mph 19.6 mph N/A   Clear
7:15 AM 59.0 °F 48.2 °F 67% 30.22 in 10.0 mi NNE 11.5 mph 19.6 mph N/A   Clear
7:35 AM 59.0 °F 48.2 °F 67% 30.23 in 10.0 mi NNE 10.4 mph 18.4 mph N/A   Clear
7:55 AM 59.0 °F 48.2 °F 67% 30.24 in 10.0 mi NNE 10.4 mph 18.4 mph N/A   Clear
8:15 AM 59.0 °F 50.0 °F 72% 30.25 in 10.0 mi NE 10.4 mph 17.3 mph N/A   Clear
8:35 AM 60.8 °F 50.0 °F 68% 30.26 in 10.0 mi NNE 13.8 mph 19.6 mph N/A   Clear
8:55 AM 60.8 °F 50.0 °F 68% 30.26 in 10.0 mi NNE 15.0 mph 21.9 mph N/A   Scattered Clouds
9:15 AM 62.6 °F 48.2 °F 59% 30.27 in 10.0 mi NE 17.3 mph 26.5 mph N/A   Scattered Clouds
9:35 AM 62.6 °F 48.2 °F 59% 30.27 in 10.0 mi NE 18.4 mph 24.2 mph N/A   Clear
9:55 AM 62.6 °F 48.2 °F 59% 30.27 in 10.0 mi NNE 17.3 mph 26.5 mph N/A   Scattered Clouds
10:15 AM 64.4 °F 48.2 °F 56% 30.28 in 10.0 mi NE 18.4 mph 24.2 mph N/A   Scattered Clouds
10:35 AM 62.6 °F 48.2 °F 59% 30.27 in 10.0 mi NE 12.7 mph 20.7 mph N/A   Scattered Clouds
10:55 AM 64.4 °F 48.2 °F 56% 30.28 in 10.0 mi NE 17.3 mph 28.8 mph N/A   Mostly Cloudy
11:15 AM 64.4 °F 48.2 °F 56% 30.28 in 10.0 mi NE 11.5 mph 21.9 mph N/A   Mostly Cloudy
11:35 AM 64.4 °F 48.2 °F 56% 30.27 in 10.0 mi NE 13.8 mph 23.0 mph N/A   Scattered Clouds
11:55 AM 64.4 °F 46.4 °F 52% 30.27 in 10.0 mi NE 15.0 mph 24.2 mph N/A   Scattered Clouds
12:15 PM 66.2 °F 46.4 °F 49% 30.26 in 10.0 mi NE 18.4 mph 27.6 mph N/A   Clear
12:35 PM 66.2 °F 46.4 °F 49% 30.26 in 10.0 mi NE 16.1 mph 23.0 mph N/A   Clear
12:55 PM 64.4 °F 46.4 °F 52% 30.25 in 10.0 mi NE 12.7 mph 24.2 mph N/A   Clear
1:15 PM 66.2 °F 46.4 °F 49% 30.25 in 10.0 mi NE 13.8 mph 25.3 mph N/A   Clear
1:35 PM 66.2 °F 46.4 °F 49% 30.25 in 10.0 mi NE 12.7 mph 27.6 mph N/A   Clear
1:55 PM 66.2 °F 46.4 °F 49% 30.25 in 10.0 mi NE 10.4 mph 25.3 mph N/A   Clear
2:15 PM 66.2 °F 46.4 °F 49% 30.24 in 10.0 mi NE 18.4 mph 24.2 mph N/A   Clear
2:35 PM 64.4 °F 46.4 °F 52% 30.24 in 10.0 mi NE 16.1 mph 26.5 mph N/A   Clear
2:55 PM 66.2 °F 46.4 °F 49% 30.25 in 10.0 mi NE 16.1 mph 25.3 mph N/A   Scattered Clouds
3:15 PM 64.4 °F 46.4 °F 52% 30.24 in 10.0 mi NE 13.8 mph 23.0 mph N/A   Scattered Clouds
3:35 PM 66.2 °F 44.6 °F 46% 30.25 in 10.0 mi NE 15.0 mph 25.3 mph N/A   Scattered Clouds
3:55 PM 64.4 °F 44.6 °F 49% 30.26 in 10.0 mi NE 17.3 mph 28.8 mph N/A   Mostly Cloudy
4:15 PM 62.6 °F 44.6 °F 52% 30.27 in 10.0 mi NE 13.8 mph 25.3 mph N/A   Overcast
4:35 PM 62.6 °F 44.6 °F 52% 30.28 in 10.0 mi NE 12.7 mph 18.4 mph N/A   Overcast
4:55 PM 60.8 °F 44.6 °F 55% 30.28 in 10.0 mi NE 16.1 mph 26.5 mph N/A   Scattered Clouds
5:15 PM 60.8 °F 44.6 °F 55% 30.28 in 10.0 mi NNE 8.1 mph 23.0 mph N/A   Clear
5:35 PM 60.8 °F 42.8 °F 52% 30.28 in 10.0 mi NNE 11.5 mph 16.1 mph N/A   Clear
5:55 PM 59.0 °F 44.6 °F 59% 30.29 in 10.0 mi NNE 6.9 mph - N/A   Clear
6:15 PM 59.0 °F 44.6 °F 59% 30.30 in 10.0 mi NNE 6.9 mph - N/A   Clear
6:35 PM 59.0 °F 44.6 °F 59% 30.30 in 10.0 mi NNE 9.2 mph - N/A   Clear
6:55 PM 59.0 °F 44.6 °F 59% 30.31 in 10.0 mi NNE 10.4 mph 16.1 mph N/A   Clear
7:15 PM 57.2 °F 44.6 °F 63% 30.32 in 10.0 mi NE 12.7 mph 20.7 mph N/A   Clear
7:35 PM 57.2 °F 44.6 °F 63% 30.32 in 10.0 mi NNE 9.2 mph 17.3 mph N/A   Clear
7:55 PM 57.2 °F 44.6 °F 63% 30.33 in 10.0 mi NE 11.5 mph 18.4 mph N/A   Clear
8:15 PM 57.2 °F 44.6 °F 63% 30.33 in 10.0 mi NE 11.5 mph 18.4 mph N/A   Clear
8:35 PM 57.2 °F 44.6 °F 63% 30.33 in 10.0 mi NNE 9.2 mph 16.1 mph N/A   Clear
8:55 PM 55.4 °F 44.6 °F 67% 30.34 in 10.0 mi NNE 9.2 mph 20.7 mph N/A   Clear
9:15 PM 55.4 °F 44.6 °F 67% 30.33 in 10.0 mi NNE 10.4 mph 16.1 mph N/A   Clear
9:35 PM 55.4 °F 44.6 °F 67% 30.33 in 10.0 mi NNE 10.4 mph 17.3 mph N/A   Clear
9:55 PM 55.4 °F 44.6 °F 67% 30.33 in 10.0 mi NNE 11.5 mph 17.3 mph N/A   Clear
10:15 PM 55.4 °F 46.4 °F 72% 30.33 in 10.0 mi NE 11.5 mph 20.7 mph N/A   Clear
10:35 PM 55.4 °F 46.4 °F 72% 30.33 in 10.0 mi NE 11.5 mph 20.7 mph N/A   Clear
10:55 PM 55.4 °F 46.4 °F 72% 30.33 in 10.0 mi NE 10.4 mph 16.1 mph N/A   Clear
11:15 PM 55.4 °F 46.4 °F 72% 30.32 in 10.0 mi NE 6.9 mph 19.6 mph N/A   Clear
11:35 PM 55.4 °F 46.4 °F 72% 30.32 in 10.0 mi NE 8.1 mph - N/A   Clear
11:55 PM 53.6 °F 46.4 °F 77% 30.32 in 10.0 mi NNE 5.8 mph - N/A   Clear